Regional Weather Roundup
Issued by NWS Kansas City/Pleasant Hill, MO

Home | Current Version | Previous Version | Graphics & Text | Print | Product List | Glossary Off
Versions: 1 2 3 4 5 6 7 8 9 10 11 12 13 14 15 16 17 18 19 20 21 22 23 24 25 26 27 28 29 30 31 32 33 34 35 36 37 38 39 40 41 42 43 44 45 46 47 48 49 50

000
ASUS43 KEAX 291510
RWREAX

WEATHER ROUNDUP FOR EASTERN KANSAS AND NORTHWEST MISSOURI
NATIONAL WEATHER SERVICE KANSAS CITY/PLEASANT HILL MO
1000 AM CDT WED JUL 29 2015

KSZ040-057-103>105-MOZ028-029-037-043-291600-
...KANSAS CITY METROPOLITAN AREA...

CITY           SKY/WX    TMP DP  RH WIND       PRES   REMARKS
K.C. INTL      CLOUDY    73  70  90 N3        30.14S
K.C. DOWNTOWN  CLOUDY    76  71  85 N3        30.13S
LEES SUMMIT    PTSUNNY   74  70  87 N12       30.14F
OLATHE - IXD   CLOUDY    71  69  93 NE13      30.12F
OLATHE - OJC   LGT RAIN  71  70  96 N13       30.13S
LAWRENCE       CLOUDY    72  69  90 NE3       30.12F

$$

MOZ001>008-011>017-020>025-030>033-038>040-044>046-053-054-291600-
...NORTHERN AND CENTRAL MISSOURI...

CITY           SKY/WX    TMP DP  RH WIND       PRES   REMARKS
ST. JOSEPH     CLOUDY    73  72  96 SW6       30.14S
MOSBY          CLOUDY    73  72  94 N5        30.14R
WARRENSBURG    CLOUDY    73  70  88 N8        30.14R
WHITEMAN AFB   PTSUNNY   77  70  77 N15       30.13R
CLINTON          N/A     82  73  74 N6        30.10R
SEDALIA        PTSUNNY   78  69  73 NE8       30.13S
WARSAW         NOT AVBL
CHILLICOTHE      N/A     78  73  84 NW5       30.12S
KIRKSVILLE     PTSUNNY   78  66  66 N10       30.11S

$$

MOZ041-047>049-056>058-063>065-088>090-097-291600-
...EASTERN AND SOUTHERN MISSOURI...

CITY           SKY/WX    TMP DP  RH WIND       PRES   REMARKS
ST. LOUIS INTL PTSUNNY   85  72  65 N7        30.02S HX  91
SPIRIT OF STL  PTSUNNY   83  73  72 N5        30.02R
COLUMBIA       PTSUNNY   78  70  76 N13       30.11R
JEFFERSON CITY MOSUNNY   81  69  67 NW12G23   30.08R
ROLLA          SUNNY     82  72  71 VRB3      30.05F
OSAGE BEACH    SUNNY     82  70  65 CALM      30.08R
SPRINGFIELD    SUNNY     86  72  62 N5        30.10S HX  92
BRANSON        SUNNY     84  73  70 N5        30.13R HX  91
JOPLIN         SUNNY     86  73  65 E6        30.10S HX  93
WEST PLAINS    SUNNY     87  75  67 NW6       30.11R HX  96

$$

IAZ060-094-KSZ022-034>040-054-083-096-NEZ052-066-093-291600-
...KANSAS...SOUTHEAST NEBRASKA AND IOWA...

CITY           SKY/WX    TMP DP  RH WIND       PRES   REMARKS
TOPEKA         CLOUDY    74  71  91 NW7       30.14R
MANHATTAN      CLOUDY    72  70  93 NW5       30.18R
EMPORIA        LGT RAIN  72  69  90 SE12      30.10F
CHANUTE        SUNNY     82  69  64 E9        30.11F
WICHITA        LGT RAIN  74  69  85 NE16      30.14S
OMAHA          MOSUNNY   75  66  73 NW5       30.18R
LINCOLN        SUNNY     76  63  64 NW3       30.22R
FALLS CITY     CLOUDY    74  70  87 NW6       30.15R
LAMONI           N/A    N/A N/A N/A MISG      30.12S
DES MOINES     PTSUNNY   79  59  50 NW7       30.11S

$$




USA.gov is the U.S. government's official web portal to all federal, state and local government web resources and services.